Regional Weather Roundup
Issued by NWS Sterling, VA

Home | Current Version | Previous Version | Graphics & Text | Print | Product List | Glossary On
Versions: 1 2 3 4 5 6 7 8 9 10 11 12 13 14 15 16 17 18 19 20 21 22 23 24 25 26 27 28 29 30 31 32 33 34 35 36 37 38 39 40 41 42 43 44 45 46 47 48 49 50
000
ASUS41 KLWX 191810
RWRLWX

REGIONAL WEATHER ROUNDUP
NATIONAL WEATHER SERVICE BALTIMORE MD/WASHINGTON DC
200 PM EDT FRI SEP 19 2014

Note: "FAIR" indicates few or no clouds below 12,000 feet
with no significant weather and/or obstructions to visibility.
 TC=TEMPERATURE CELSIUS

 * =Non NWS site. Station does not report precipitation (e.g. rain,
    snow, etc.), thunder, or fog.

DCZ001-MDZ009-015-VAZ040>042-051-053>054-191900-
WASHINGTON METRO

CITY           SKY/WX    TMP DP  RH WIND       PRES   REMARKS
WASHINGTON NAT PTSUNNY   76  54  46 NE6       30.26F
DULLES         PTSUNNY   70  55  59 E7        30.26F
ANDREWS AFB    MOSUNNY   73  55  53 E5        30.26F
QUANTICO       PTSUNNY   74  58  57 N7        30.26F
COLLEGE PARK*  PTSUNNY   73  57  56 CALM      30.26F
LEESBURG*      CLOUDY    72  57  60 CALM      30.28S
GAITHERSBURG*  CLOUDY    70  55  60 E6        30.31S

$$

MDZ006>007-011-014-191900-
BALTIMORE METRO

CITY           SKY/WX    TMP DP  RH WIND       PRES   REMARKS
BWI AIRPORT    PTSUNNY   70  56  61 SE7       30.27F
MD SCIENCE CTR   N/A     71  56  58 MISG      30.28S
MARTIN STATE   MOSUNNY   73  61  64 NE6       30.29F
ANNAPOLIS      MOSUNNY   72  58  61 VRB3      30.26F
FORT MEADE*    PTSUNNY   72  55  56 SE6       30.29F

$$

MDZ012-015-019>023-191900-
MARYLAND EASTERN SHORE

CITY           SKY/WX    TMP DP  RH WIND       PRES   REMARKS
OCEAN CITY     SUNNY     73  56  54 E10G20    30.25S
SALISBURY      PTSUNNY   74  60  61 NE12      30.24F
CAMBRIDGE*     MOSUNNY   77  52  41 NE3       30.24F
EASTON*        MOSUNNY   77  57  50 E3        30.29F

$$

MDZ017>025-191900-
SOUTHERN MARYLAND

CITY           SKY/WX    TMP DP  RH WIND       PRES   REMARKS
PATUXENT RIVER MOSUNNY   75  57  53 E7        30.25F
ST INIGOES     SUNNY     76  55  48 E8        30.24F
LEONARDTOWN*   MOSUNNY   72  55  56 E7        30.26F

$$

MDZ003>005-191900-
NORTH CENTRAL MARYLAND

CITY           SKY/WX    TMP DP  RH WIND       PRES   REMARKS
FREDERICK*     PTSUNNY   75  55  50 E5        30.29F
HAGERSTOWN APT CLOUDY    70  51  51 E6        30.27S
WESTMINSTER*   SUNNY     72  54  53 SE5       30.27F

$$

MDZ501>502-191900-
WESTERN MARYLAND

CITY           SKY/WX    TMP DP  RH WIND       PRES   REMARKS
OAKLAND*       MOSUNNY   63  54  72 SE15G21   30.26S
CUMBERLAND*    MOSUNNY   73  50  43 SE5       30.28F

$$

VAZ025>031-191900-
SHENANDOAH VALLEY

CITY           SKY/WX    TMP DP  RH WIND       PRES   REMARKS
WINCHESTER*    CLOUDY    70  52  52 E6        30.26S
STAUNTON*      CLOUDY    64  55  72 SE3       30.29F

$$

WVZ021-048>050-054>055-191900-
EASTERN WEST VIRGINIA PANHANDLE

CITY           SKY/WX    TMP DP  RH WIND       PRES   REMARKS
MARTINSBURG    PTSUNNY   70  49  47 VRB3      30.27F
PETERSBURG*    PTSUNNY   66  49  53 NW3       30.26F

$$

VAZ036>039-050-191900-
CENTRAL FOOTHILLS

CITY           SKY/WX    TMP DP  RH WIND       PRES   REMARKS
CHARLOTTESVILL CLOUDY    68  57  68 VRB6      30.26F
ORANGE*        CLOUDY    70  59  68 CALM      30.27F

$$

VAZ055>057-191900-
NORTH AND CENTRAL PIEDMONT

CITY           SKY/WX    TMP DP  RH WIND       PRES   REMARKS
FREDERICKSBRG* MOSUNNY   76  61  59 NE6       30.24F
STAFFORD*      PTSUNNY   74  59  59 CALM      30.29S

$$

NCZ024-NYZ072-PAZ021-071-VAZ022-071-191900-
OTHER REGIONAL OBSERVATIONS

CITY           SKY/WX    TMP DP  RH WIND       PRES   REMARKS
NEW YORK CITY  MOSUNNY   64  43  46 VRB7      30.38S
PHILADELPHIA   PTSUNNY   70  52  52 E8        30.31F
PITTSBURGH     MOSUNNY   69  50  50 SE9       30.20F
ROANOKE        LGT RAIN  60  57  89 E7        30.28R FOG
RICHMOND       PTSUNNY   78  58  49 NE7       30.23F
RALEIGH        MOSUNNY   79  57  46 E15       30.18F

$$

ANZ530>537-191900-
MARINE OBSERVATIONS

STATION/POSITION TIME  TEMP    WIND        PRES
                       AIR SEA DIR/SP/G
                 (UTC) (F)     (DEG/KT/KT) (MB)
THOMAS PT LIGHT  1800   67 74   10/  6/  7 1025.7F
BALT KEY BRIDGE  1800   68      60/  6/  9 1025.1F
COVE POINT       1800   68     340/  7/  8 1024.4S
LEWISETTA        1800   71 74  100/  8/  9 1023.9S
SOLOMONS ISLAND  1800      76                N/A
PINEY POINT      1800          120/  5/  6   N/A

$$



USA.gov is the U.S. government's official web portal to all federal, state and local government web resources and services.